Regional Weather Roundup
Issued by NWS

Home | Current Version | Previous Version | Graphics & Text | Print | Product List | Glossary On
Versions: 1 2 3 4 5 6 7 8 9 10 11 12 13 14 15 16 17 18 19 20 21 22 23 24 25 26 27 28 29 30 31 32 33 34 35 36 37 38 39 40 41 42 43 44 45 46 47 48 49 50
000
ASUS43 KLOT 181621
RWRIL

ILLINOIS REGIONAL WEATHER ROUNDUP
NATIONAL WEATHER SERVICE CHICAGO/ROMEOVILLE IL
1100 AM CDT SAT APR 18 2015

NOTE: "FAIR" INDICATES FEW OR NO CLOUDS BELOW 12,000 FEET WITH NO
SIGNIFICANT WEATHER AND/OR OBSTRUCTIONS TO VISIBILITY.

* THESE STATIONS ARE NOT UNDER NWS QUALITY CONTROL. THEY ALSO MAY NOT
  REPORT WEATHER SUCH AS PRECIPITATION OR FOG.

ILZ001-002-007-009-015-016-024-181700-
NORTHWEST ILLINOIS

CITY           SKY/WX    TMP DP  RH WIND       PRES   REMARKS
MOLINE         PTSUNNY   73  53  49 E7        30.00F
STERLING*      MOSUNNY   73  48  40 E23       30.03S
SAVANNA*       MOSUNNY   76  44  31 E18       30.03R
$$

ILZ003-004-008-010-011-017-018-181700-
NORTH CENTRAL ILLINOIS

CITY           SKY/WX    TMP DP  RH WIND       PRES   REMARKS
ROCKFORD       PTSUNNY   66  37  34 NE18G25   30.09R
FREEPORT*      SUNNY     67  40  37 E18       30.08S
ROCHELLE*      MOSUNNY   68  45  42 E15G25    30.07R
DE KALB*       PTSUNNY   63  40  42 NE18      30.08S
PERU*          PTSUNNY   74  52  46 E10       30.04S
$$

ILZ005-006-012>014-019>023-181700-
NORTHEAST ILLINOIS

CITY           SKY/WX    TMP DP  RH WIND       PRES   REMARKS
CHICAGO-OHARE  PTSUNNY   55  38  52 NE14      30.10S
CHICAGO-MIDWAY PTSUNNY   59  42  53 NE13      30.09S
AURORA         PTSUNNY   65  40  39 NE22      30.07R
LANSING*       PTSUNNY   55  41  57 N9G16     30.08R
JOLIET*        CLOUDY    65  46  49 NE9       30.06R
WAUKEGAN       SUNNY     51  36  56 N18G25    30.11R
DUPAGE AIRPORT PTSUNNY   62  38  40 NE16      30.08R
KANKAKEE*      PTSUNNY   73  56  55 CALM      30.05R
WHEELING       MOSUNNY   55  37  50 NE14G21   30.12S
MORRIS*        CLOUDY    72  47  40 NE9G18    30.04R
ROMEOVILLE*    CLOUDY    62  41  45 NE16      30.07R
NORTHERLY ISL    N/A     49  39  68 MISG        N/A
$$

LMZ740>746-181700-
SOUTHERN LAKE MICHIGAN

STATION/POSITION SKY/WX   TEMP    WIND        PRES    VSBY  WAVE
                          AIR SEA DIR/SP/G                  HT/PER
                          (F)     (DEG/KT/KT) (MB)    (MI)  (FT/S)
HARRISON CRIB              42     340/ 17/ 20   N/A
BURNHAM HARBOR             50     340/ 12/ 17   N/A
CALUMET HARBOR             50     330/ 12/ 19   N/A
BURNS HARBOR               49     360/  6/  8 1019.0R
MICHIGAN CITY              47     310/  8/  9   N/A
MICHIGAN CITY 6N           44 47                N/A           0
$$

ILZ025>027-034>036-040-047-049-050-058-095>099-181700-
WEST-CENTRAL ILLINOIS

CITY           SKY/WX    TMP DP  RH WIND       PRES   REMARKS
QUINCY         CLOUDY    72  58  61 S8        30.00R
GALESBURG*     CLOUDY    73  56  56 S6        30.01S
MACOMB*        CLOUDY    75  56  50 S13       30.03S
JACKSONVILLE*  CLOUDY    76  58  52 SE13      30.02R
PITTSFIELD*    CLOUDY    73  60  63 S6        30.02S
$$

ILZ028>032-037-038-041>044-048-051>054-059>061-181700-
CENTRAL ILLINOIS

CITY           SKY/WX    TMP DP  RH WIND       PRES   REMARKS
PONTIAC        PTSUNNY   74  57  55 NW5       30.04S
BLOOMINGTON    CLOUDY    73  57  57 CALM      30.05R
DECATUR        PTSUNNY   74  52  46 SE8       30.03S
PEORIA         CLOUDY    73  57  57 S6        30.02R
LACON*         MOSUNNY   73  56  54 CALM      30.02R
LINCOLN*       CLOUDY    75  55  49 SE5       30.01R
SPRINGFIELD    PTSUNNY   75  57  53 E9        30.02R
TAYLORVILLE    PTSUNNY   72  55  56 SE8       30.03R
$$

ILZ033-039-045-046-055>057-062-063-181700-
EAST-CENTRAL ILLINOIS

CITY           SKY/WX    TMP DP  RH WIND       PRES   REMARKS
CHAMPAIGN      CLOUDY    74  48  39 E9        30.04S
DANVILLE*      CLOUDY    71  50  47 SE5       30.03S
RANTOUL*       CLOUDY    74  52  45 E3        30.05R
MATTOON        PTSUNNY   73  50  44 SE7       30.03R
PARIS*         CLOUDY    71  50  46 SE5       30.06R
$$

ILZ079-100>102-181700-
SOUTHWEST ILLINOIS

CITY           SKY/WX    TMP DP  RH WIND       PRES   REMARKS
ALTON          PTSUNNY   72  61  68 E13       30.02
BELLEVILLE     PTSUNNY   72  66  82 SE6       30.01R
CAHOKIA*       CLOUDY    73  62  68 SE5       30.01R
SPARTA*        CLOUDY    69  62  78 SE3       30.03R
$$

ILZ064>066-069>071-074>076-080>082-084>086-088>090-092>094-181700-
SOUTH-CENTRAL ILLINOIS

CITY           SKY/WX    TMP DP  RH WIND       PRES   REMARKS
CARBONDALE     CLOUDY    73  61  65 S9        30.02R
CAIRO*         MOSUNNY   75  62  65 SE9       30.02R
EFFINGHAM*     PTSUNNY   75  47  37 E3        30.04S
MARION         MOSUNNY   75  63  64 E14       30.02R
MT. VERNON     CLOUDY    73  59  60 SE5       30.04R
CENTRALIA*     PTSUNNY   76  57  50 SE8       30.02R
SALEM*         PTSUNNY   75  59  56 E5        30.01S
METROPOLIS*    MOSUNNY   75  62  62 E9        30.00S
$$

ILZ067-068-072-073-078-083-087-091-181700-
SOUTHEAST ILLINOIS

CITY           SKY/WX    TMP DP  RH WIND       PRES   REMARKS
LAWRENCEVILLE  MOSUNNY   74  56  53 VRB3      30.03S
FLORA*         MOSUNNY   72  56  57 E5        30.03R
FAIRFIELD*     PTSUNNY   73  58  58 E6        30.01S
HARRISBURG*    CLOUDY    72  59  62 SE8       30.04R
ROBINSON*      PTSUNNY   73  52  48 E3        30.05S
CARMI*         CLOUDY    73  54  50 E7        30.01S
$$

ABBREVIATIONS USED IN REMARKS
   TC - TEMPERATURE IN CELSIUS
  WCI - WIND CHILL INDEX
   HX - HEAT INDEX
  VSB - VISIBILITY
$$




USA.gov is the U.S. government's official web portal to all federal, state and local government web resources and services.